TITAN 3C TRANSTAGE DEB, 1959

Orbit data source: Space-Track

TITAN 3C TRANSTAGE DEB, 1959 is space debris in LEO originally from a launch on Fri, 15 Oct 1965 UTC launched from the Air Force Eastern Test Range (AFETR). Debris objects in space refer to the collection of defunct objects orbiting the Earth. Examples of debris include non-operational satellites, rocket bodies, and fragments generated from explosions, collisions, or faulty payload assembly.

Loading next visibility...
Identifier
1959, 1965-082GU
Orbit
LEO
Country
Flag of USUS
Related business
Manufacturer
Unknown
Mission
Spacecraft
Bus & Motor
Unknown
Mass
Unknown
Launch date (UTC)
1965-10-15 (61 years ago)
Launch vehicle
Unknown
Launch site
Air Force Eastern Test Range (AFETR)
Object type
Payload
Rocket body
Debris
Shape & HBR
Unknown shape, 0.2 m
Radar Cross Section
Medium (>0.1 m² and <1 m²)

Expand to show TLE details & history
Last TLE update: 17 hours ago

TLE from 17 hours ago
0 TITAN 3C TRANSTAGE DEB
1 01959U 65082GU  26236.62867883  .00000425  00000-0  77007-4 0  9998
2 01959  31.7912 326.6853 0061894 139.3749 221.1528 14.59085688223761
Epoch: 2026-08-24T15:05Z
TLE epoch observation values (Epoch: 2026-08-24T15:05:17.850Z)
Latitude
-0.00005°
Longitude
127.4532°
Altitude
727.823 km
Speed
7.476 km/s
True Right ascension
21h 46m 44s
True Declination
0° 00' 00"
Sunlit
Object was in full shadow at epoch
Visualization orbit readout
Latitude
Unknown
Longitude
Unknown
Altitude
Unknown
Speed
Unknown
Apparent Right ascension
Unknown
Apparent Declination
Unknown
Sunlit
N/A
Visualization observer readout
Local Sidereal Time
23:02:28
Azimuth
Unknown
Elevation
Unknown
Doppler factor
Unknown
Orbital elements
Apogee altitude
743.575 km
Perigee altitude
655.959 km
Semi-major axis
7,077.904 km
Eccentricity
0.00619
Inclination
31.7912°
RAAN
326.6853°
Arg. of periapsis
139.3749°
True anomaly
220.68877°
Mean anomaly
221.1528°
Eccentric anomaly
220.92052°
Mean motion
3.6449 °/min
Orbital period
98.77 mins
BSTAR
0.000077007

Documentation

Showing up to 5 results
|